TimeCST,TemperatureF,Dew PointF,Humidity,Sea Level PressureIn,VisibilityMPH,Wind Direction,Wind SpeedMPH,Gust SpeedMPH,PrecipitationIn,Events,Conditions,WindDirDegrees,DateUTC
12:00 AM,1.4,-4.0,78,30.24,10.0,NW,9.2,-,N/A,,Clear,310,2014-02-02 06:00:00
12:15 AM,-0.4,-5.8,78,30.25,10.0,NW,9.2,-,N/A,,Clear,320,2014-02-02 06:15:00
12:35 AM,-0.4,-5.8,78,30.25,10.0,NW,8.1,-,N/A,,Clear,320,2014-02-02 06:35:00
12:55 AM,-0.4,-5.8,78,30.25,10.0,NW,9.2,-,N/A,,Clear,320,2014-02-02 06:55:00
1:15 AM,-0.4,-5.8,78,30.24,10.0,NW,8.1,-,N/A,,Clear,310,2014-02-02 07:15:00
1:35 AM,-0.4,-5.8,78,30.24,10.0,NW,11.5,-,N/A,,Clear,310,2014-02-02 07:35:00
1:55 AM,-0.4,-5.8,78,30.24,10.0,NW,9.2,-,N/A,,Clear,320,2014-02-02 07:55:00
2:15 AM,-0.4,-5.8,78,30.25,10.0,NW,9.2,-,N/A,,Clear,310,2014-02-02 08:15:00
2:35 AM,-4.0,-9.4,78,30.26,10.0,West,9.2,-,N/A,,Clear,280,2014-02-02 08:35:00
2:55 AM,-5.8,-9.4,84,30.26,10.0,West,9.2,-,N/A,,Clear,280,2014-02-02 08:55:00
3:15 AM,-4.0,-9.4,78,30.26,10.0,West,9.2,-,N/A,,Clear,280,2014-02-02 09:15:00
3:35 AM,-2.2,-7.6,78,30.26,10.0,West,10.4,-,N/A,,Clear,280,2014-02-02 09:35:00
3:55 AM,-4.0,-9.4,78,30.26,10.0,West,10.4,-,N/A,,Scattered Clouds,280,2014-02-02 09:55:00
4:15 AM,-0.4,-5.8,78,30.27,10.0,WNW,8.1,-,N/A,,Overcast,290,2014-02-02 10:15:00
4:35 AM,-0.4,-4.0,85,30.26,10.0,WNW,6.9,-,N/A,,Overcast,290,2014-02-02 10:35:00
4:55 AM,1.4,-4.0,78,30.26,10.0,West,8.1,-,N/A,,Overcast,280,2014-02-02 10:55:00
5:15 AM,-0.4,-5.8,78,30.26,10.0,West,9.2,-,N/A,,Overcast,260,2014-02-02 11:15:00
5:35 AM,-2.2,-7.6,78,30.26,10.0,West,10.4,-,N/A,,Mostly Cloudy,270,2014-02-02 11:35:00
5:55 AM,-2.2,-7.6,78,30.26,10.0,West,10.4,-,N/A,,Partly Cloudy,260,2014-02-02 11:55:00
6:15 AM,-2.2,-7.6,78,30.26,10.0,West,12.7,-,N/A,,Clear,260,2014-02-02 12:15:00
6:35 AM,-2.2,-7.6,78,30.26,10.0,West,12.7,-,N/A,,Clear,270,2014-02-02 12:35:00
6:55 AM,-4.0,-9.4,78,30.26,10.0,West,11.5,-,N/A,,Clear,270,2014-02-02 12:55:00
7:15 AM,-4.0,-7.6,85,30.26,10.0,West,11.5,-,N/A,,Clear,280,2014-02-02 13:15:00
7:35 AM,-4.0,-7.6,85,30.26,10.0,West,11.5,-,N/A,,Clear,270,2014-02-02 13:35:00
7:55 AM,-2.2,-7.6,78,30.27,10.0,West,9.2,-,N/A,,Clear,260,2014-02-02 13:55:00
8:15 AM,-2.2,-7.6,78,30.27,10.0,West,9.2,-,N/A,,Clear,270,2014-02-02 14:15:00
8:35 AM,-0.4,-5.8,78,30.28,10.0,West,9.2,-,N/A,,Clear,260,2014-02-02 14:35:00
8:55 AM,1.4,-4.0,78,30.28,10.0,WSW,8.1,-,N/A,,Clear,250,2014-02-02 14:55:00
9:15 AM,1.4,-2.2,85,30.29,10.0,SW,8.1,-,N/A,,Clear,230,2014-02-02 15:15:00
9:35 AM,3.2,-0.4,85,30.30,10.0,SW,6.9,-,N/A,,Clear,230,2014-02-02 15:35:00
9:55 AM,5.0,1.4,85,30.30,10.0,WSW,9.2,-,N/A,,Clear,240,2014-02-02 15:55:00
10:15 AM,6.8,1.4,79,30.29,10.0,WSW,9.2,-,N/A,,Clear,240,2014-02-02 16:15:00
10:35 AM,8.6,3.2,79,30.29,10.0,SW,9.2,-,N/A,,Clear,230,2014-02-02 16:35:00
10:55 AM,10.4,3.2,73,30.29,10.0,SW,11.5,-,N/A,,Clear,220,2014-02-02 16:55:00
11:15 AM,12.2,5.0,73,30.29,10.0,WSW,9.2,-,N/A,,Clear,240,2014-02-02 17:15:00
11:35 AM,12.2,5.0,73,30.29,10.0,WSW,10.4,-,N/A,,Partly Cloudy,240,2014-02-02 17:35:00
11:55 AM,14.0,5.0,67,30.28,10.0,SW,11.5,-,N/A,,Partly Cloudy,230,2014-02-02 17:55:00
12:15 PM,14.0,5.0,67,30.28,10.0,SW,12.7,-,N/A,,Scattered Clouds,230,2014-02-02 18:15:00
12:35 PM,15.8,5.0,62,30.27,10.0,SW,13.8,-,N/A,,Partly Cloudy,230,2014-02-02 18:35:00
12:55 PM,15.8,5.0,62,30.26,10.0,WSW,13.8,-,N/A,,Clear,240,2014-02-02 18:55:00
1:15 PM,17.6,5.0,58,30.25,10.0,WSW,13.8,-,N/A,,Clear,250,2014-02-02 19:15:00
1:35 PM,17.6,5.0,58,30.24,10.0,West,16.1,-,N/A,,Clear,260,2014-02-02 19:35:00
1:55 PM,19.4,5.0,54,30.22,10.0,West,13.8,-,N/A,,Clear,260,2014-02-02 19:55:00
2:15 PM,19.4,5.0,54,30.22,10.0,WSW,12.7,-,N/A,,Clear,250,2014-02-02 20:15:00
2:35 PM,19.4,6.8,58,30.22,10.0,WSW,15.0,-,N/A,,Clear,250,2014-02-02 20:35:00
2:55 PM,19.4,5.0,54,30.21,10.0,WSW,12.7,-,N/A,,Clear,240,2014-02-02 20:55:00
3:15 PM,21.2,6.8,54,30.21,10.0,WSW,12.7,-,N/A,,Clear,250,2014-02-02 21:15:00
3:35 PM,21.2,6.8,54,30.20,10.0,WSW,11.5,-,N/A,,Clear,250,2014-02-02 21:35:00
3:55 PM,21.2,6.8,54,30.20,10.0,WSW,8.1,-,N/A,,Clear,240,2014-02-02 21:55:00
4:15 PM,21.2,6.8,54,30.20,10.0,WSW,9.2,-,N/A,,Clear,240,2014-02-02 22:15:00
4:35 PM,21.2,6.8,54,30.19,10.0,SW,10.4,-,N/A,,Clear,220,2014-02-02 22:35:00
4:55 PM,21.2,8.6,58,30.19,10.0,SSW,9.2,-,N/A,,Clear,210,2014-02-02 22:55:00
5:15 PM,19.4,6.8,58,30.19,10.0,South,9.2,-,N/A,,Clear,190,2014-02-02 23:15:00
5:35 PM,15.8,6.8,68,30.19,10.0,South,11.5,-,N/A,,Clear,190,2014-02-02 23:35:00
5:55 PM,15.8,6.8,68,30.18,10.0,South,11.5,-,N/A,,Clear,180,2014-02-02 23:55:00
6:15 PM,14.0,5.0,67,30.19,10.0,South,11.5,-,N/A,,Clear,180,2014-02-03 00:15:00
6:35 PM,14.0,5.0,67,30.19,10.0,South,10.4,-,N/A,,Clear,170,2014-02-03 00:35:00
6:55 PM,12.2,5.0,73,30.18,10.0,SSE,9.2,-,N/A,,Clear,160,2014-02-03 00:55:00
7:15 PM,10.4,5.0,79,30.18,10.0,SSE,9.2,-,N/A,,Clear,160,2014-02-03 01:15:00
7:35 PM,12.2,5.0,73,30.18,10.0,South,11.5,-,N/A,,Clear,170,2014-02-03 01:35:00
7:55 PM,8.6,3.2,79,30.18,10.0,South,11.5,-,N/A,,Clear,170,2014-02-03 01:55:00
8:15 PM,8.6,3.2,79,30.18,10.0,South,11.5,-,N/A,,Clear,170,2014-02-03 02:15:00
8:35 PM,8.6,3.2,79,30.18,10.0,South,11.5,-,N/A,,Clear,170,2014-02-03 02:35:00
8:55 PM,6.8,3.2,85,30.17,10.0,South,12.7,-,N/A,,Clear,180,2014-02-03 02:55:00
9:15 PM,8.6,3.2,79,30.17,10.0,South,12.7,-,N/A,,Clear,180,2014-02-03 03:15:00
9:35 PM,6.8,1.4,79,30.17,10.0,South,10.4,-,N/A,,Clear,190,2014-02-03 03:35:00
9:55 PM,6.8,1.4,79,30.17,10.0,SSW,9.2,-,N/A,,Clear,200,2014-02-03 03:55:00
10:15 PM,8.6,5.0,85,30.17,10.0,SSW,12.7,-,N/A,,Clear,200,2014-02-03 04:15:00
10:35 PM,8.6,3.2,79,30.17,10.0,SSW,10.4,-,N/A,,Clear,200,2014-02-03 04:35:00
10:55 PM,6.8,3.2,85,30.17,10.0,SSW,10.4,-,N/A,,Clear,200,2014-02-03 04:55:00
11:15 PM,10.4,5.0,79,30.17,10.0,SSW,12.7,-,N/A,,Clear,210,2014-02-03 05:15:00
11:35 PM,10.4,5.0,79,30.16,10.0,SSW,12.7,-,N/A,,Clear,210,2014-02-03 05:35:00
11:55 PM,12.2,6.8,79,30.16,10.0,SSW,16.1,-,N/A,,Clear,210,2014-02-03 05:55:00